QPF
0.00 0.00 0.00 0.00 0.00 0.00 0.00 0.00 0.00 0.00 0.00 0.00 0.00 0.00 0.00 0.00 0.00 0.00 0.00 0.00 0.00 0.00 0.00 0.00 0.00 0.00 0.00 0.00 0.00 0.00 0.00 0.00 0.00 0.00 0.00 0.00 0.00 0.00 0.00 0.00 0.00 0.00 0.01
0.00 0.00 0.00 0.00 0.00 0.00 0.00 0.00 0.00 0.00 0.00 0.00 0.00 0.00 0.00 0.00 0.00 0.00 0.00 0.00 0.00 0.00 0.00 0.00 0.00 0.00 0.00 0.00 0.00 0.00 0.00 0.00 0.00 0.01 0.01 0.01 0.00 0.00 0.00 0.00 0.00 0.01 0.01
0.00 0.00 0.00 0.00 0.00 0.00 0.00 0.00 0.00 0.00 0.00 0.00 0.00 0.00 0.00 0.00 0.00 0.00 0.00 0.00 0.00 0.00 0.00 0.00 0.00 0.00 0.00 0.00 0.00 0.00 0.01 0.01 0.01 0.01 0.02 0.04 0.03 0.01 0.00 0.00 0.00 0.00 0.01
0.00 0.00 0.00 0.00 0.00 0.00 0.00 0.00 0.00 0.00 0.00 0.00 0.00 0.00 0.00 0.00 0.00 0.00 0.00 0.00 0.00 0.00 0.00 0.00 0.00 0.00 0.00 0.00 0.00 0.00 0.01 0.01 0.02 0.01 0.02 0.02 0.03 0.03 0.02 0.00 0.00 0.00 0.00
0.00 0.00 0.00 0.00 0.00 0.00 0.00 0.00 0.00 0.00 0.00 0.00 0.00 0.00 0.00 0.00 0.00 0.00 0.00 0.00 0.00 0.00 0.00 0.00 0.00 0.00 0.00 0.00 0.00 0.00 0.01 0.01 0.02 0.02 0.02 0.02 0.02 0.02 0.04 0.02 0.00 0.00 0.00
0.00 0.00 0.00 0.00 0.00 0.00 0.00 0.00 0.00 0.00 0.00 0.00 0.00 0.00 0.00 0.00 0.00 0.00 0.00 0.00 0.00 0.00 0.00 0.00 0.00 0.00 0.00 0.00 0.00 0.01 0.01 0.01 0.02 0.02 0.03 0.04 0.04 0.04 0.05 0.04 0.01 0.00 0.00
0.00 0.00 0.00 0.00 0.00 0.00 0.00 0.00 0.00 0.00 0.00 0.00 0.00 0.00 0.00 0.00 0.00 0.00 0.00 0.00 0.00 0.00 0.00 0.00 0.00 0.00 0.00 0.00 0.00 0.01 0.01 0.01 0.02 0.03 0.04 0.05 0.05 0.05 0.06 0.06 0.04 0.02 0.00
0.00 0.00 0.00 0.00 0.00 0.00 0.00 0.00 0.00 0.00 0.00 0.00 0.00 0.00 0.00 0.00 0.00 0.00 0.00 0.00 0.00 0.00 0.00 0.00 0.00 0.00 0.00 0.00 0.00 0.01 0.01 0.01 0.02 0.03 0.04 0.05 0.05 0.06 0.08 0.09 0.09 0.06 0.02
0.00 0.00 0.00 0.00 0.00 0.00 0.00 0.00 0.00 0.00 0.00 0.00 0.00 0.00 0.00 0.00 0.00 0.00 0.00 0.00 0.00 0.00 0.00 0.00 0.00 0.00 0.00 0.00 0.00 0.01 0.01 0.01 0.02 0.03 0.04 0.05 0.05 0.06 0.07 0.08 0.11 0.13 0.08
0.00 0.00 0.00 0.00 0.00 0.00 0.00 0.00 0.00 0.00 0.00 0.00 0.00 0.00 0.00 0.00 0.00 0.00 0.00 0.00 0.00 0.00 0.00 0.00 0.00 0.00 0.00 0.00 0.00 0.00 0.01 0.01 0.01 0.02 0.03 0.04 0.04 0.05 0.06 0.07 0.08 0.09 0.10
0.00 0.00 0.00 0.00 0.00 0.00 0.00 0.00 0.00 0.00 0.00 0.00 0.00 0.00 0.00 0.00 0.00 0.00 0.00 0.00 0.00 0.00 0.00 0.00 0.00 0.00 0.00 0.00 0.00 0.00 0.00 0.00 0.00 0.01 0.02 0.02 0.03 0.04 0.05 0.06 0.07 0.06 0.07
0.00 0.00 0.00 0.00 0.00 0.00 0.00 0.00 0.00 0.00 0.00 0.00 0.00 0.00 0.00 0.00 0.00 0.00 0.00 0.00 0.00 0.00 0.00 0.00 0.00 0.00 0.00 0.00 0.00 0.00 0.00 0.00 0.00 0.00 0.01 0.01 0.02 0.03 0.04 0.05 0.06 0.05 0.05
0.00 0.00 0.00 0.00 0.00 0.00 0.00 0.00 0.00 0.00 0.00 0.00 0.00 0.00 0.00 0.00 0.00 0.00 0.00 0.00 0.00 0.00 0.00 0.00 0.00 0.00 0.00 0.00 0.01 0.01 0.01 0.00 0.00 0.01 0.01 0.01 0.01 0.01 0.02 0.03 0.04 0.04 0.03
0.00 0.00 0.00 0.00 0.00 0.00 0.00 0.00 0.00 0.00 0.00 0.00 0.00 0.00 0.00 0.00 0.00 0.00 0.00 0.00 0.00 0.00 0.00 0.00 0.00 0.00 0.00 0.01 0.03 0.03 0.02 0.01 0.01 0.01 0.01 0.00 0.01 0.02 0.04 0.05 0.04 0.03 0.02
0.00 0.00 0.00 0.00 0.00 0.00 0.00 0.00 0.00 0.00 0.00 0.00 0.00 0.00 0.00 0.00 0.00 0.00 0.00 0.00 0.00 0.00 0.00 0.00 0.00 0.00 0.00 0.01 0.06 0.09 0.05 0.03 0.02 0.01 0.00 0.00 0.01 0.03 0.06 0.07 0.06 0.04 0.03
0.00 0.00 0.00 0.00 0.00 0.00 0.00 0.00 0.00 0.00 0.00 0.00 0.00 0.00 0.00 0.00 0.00 0.00 0.00 0.00 0.00 0.00 0.00 0.00 0.00 0.00 0.00 0.00 0.05 0.09 0.06 0.03 0.02 0.01 0.01 0.00 0.00 0.02 0.04 0.05 0.05 0.04 0.05
0.00 0.00 0.00 0.00 0.00 0.00 0.00 0.00 0.00 0.00 0.00 0.00 0.00 0.00 0.00 0.00 0.00 0.00 0.00 0.00 0.00 0.00 0.00 0.00 0.00 0.00 0.00 0.00 0.03 0.08 0.06 0.02 0.02 0.02 0.01 0.00 0.00 0.01 0.04 0.04 0.02 0.01 0.02
0.00 0.00 0.00 0.00 0.00 0.00 0.00 0.00 0.00 0.00 0.00 0.00 0.00 0.00 0.00 0.00 0.00 0.00 0.00 0.00 0.00 0.00 0.00 0.00 0.00 0.00 0.00 0.00 0.02 0.08 0.05 0.02 0.02 0.01 0.01 0.00 0.01 0.02 0.07 0.05 0.02 0.01 0.01
0.00 0.00 0.00 0.00 0.00 0.00 0.00 0.00 0.00 0.00 0.00 0.00 0.00 0.00 0.00 0.00 0.00 0.00 0.00 0.00 0.00 0.00 0.00 0.00 0.00 0.00 0.00 0.00 0.02 0.08 0.06 0.04 0.02 0.01 0.01 0.01 0.01 0.03 0.06 0.03 0.02 0.01 0.02
0.00 0.00 0.00 0.00 0.00 0.00 0.00 0.00 0.00 0.00 0.00 0.00 0.00 0.00 0.00 0.00 0.00 0.00 0.00 0.00 0.00 0.00 0.00 0.00 0.00 0.00 0.00 0.00 0.02 0.09 0.08 0.05 0.02 0.01 0.01 0.01 0.02 0.04 0.04 0.02 0.01 0.03 0.03
0.00 0.00 0.00 0.00 0.00 0.00 0.00 0.00 0.00 0.00 0.00 0.00 0.00 0.00 0.00 0.00 0.00 0.00 0.00 0.00 0.00 0.00 0.00 0.00 0.00 0.00 0.00 0.00 0.03 0.08 0.09 0.06 0.02 0.01 0.00 0.00 0.02 0.02 0.02 0.01 0.02 0.04 0.04
0.00 0.00 0.00 0.00 0.00 0.00 0.00 0.00 0.00 0.00 0.00 0.00 0.00 0.00 0.00 0.00 0.00 0.00 0.00 0.00 0.00 0.00 0.00 0.00 0.00 0.00 0.00 0.00 0.03 0.06 0.06 0.04 0.02 0.01 0.01 0.01 0.02 0.01 0.00 0.01 0.02 0.02 0.01
0.00 0.00 0.00 0.00 0.00 0.00 0.00 0.00 0.00 0.00 0.00 0.00 0.00 0.00 0.00 0.00 0.00 0.00 0.00 0.00 0.00 0.00 0.00 0.00 0.00 0.00 0.00 0.01 0.03 0.04 0.03 0.02 0.02 0.01 0.01 0.01 0.01 0.00 0.00 0.00 0.01 0.01 0.01
0.00 0.00 0.00 0.00 0.00 0.00 0.00 0.00 0.00 0.00 0.00 0.00 0.00 0.00 0.00 0.00 0.00 0.00 0.00 0.00 0.00 0.00 0.00 0.00 0.00 0.00 0.00 0.01 0.04 0.03 0.02 0.01 0.01 0.01 0.00 0.00 0.00 0.00 0.00 0.00 0.00 0.00 0.01
0.00 0.00 0.00 0.00 0.00 0.00 0.00 0.00 0.00 0.00 0.00 0.00 0.00 0.00 0.00 0.00 0.00 0.00 0.00 0.00 0.00 0.00 0.00 0.00 0.00 0.01 0.01 0.02 0.04 0.03 0.02 0.01 0.01 0.01 0.00 0.00 0.00 0.00 0.00 0.00 0.00 0.00 0.01
0.00 0.00 0.00 0.00 0.00 0.00 0.00 0.00 0.00 0.00 0.00 0.00 0.00 0.00 0.00 0.00 0.00 0.00 0.00 0.00 0.00 0.00 0.00 0.00 0.00 0.00 0.01 0.01 0.02 0.02 0.01 0.01 0.01 0.00 0.00 0.00 0.00 0.00 0.00 0.00 0.00 0.00 0.00
MSLP
1024.80 1025.35 1026.03 1026.81 1027.66 1028.51 1029.31 1030.01 1030.55 1030.92 1031.12 1031.16 1031.11 1030.99 1030.87 1030.78 1030.74 1030.73 1030.75 1030.76 1030.72 1030.62 1030.44 1030.16 1029.80 1029.38 1028.92 1028.42 1027.91 1027.39 1026.86 1026.30 1025.71 1025.08 1024.40 1023.66 1022.85 1021.96 1021.00 1019.98 1018.89 1017.76 1016.63
1023.94 1024.55 1025.29 1026.14 1027.06 1027.99 1028.86 1029.63 1030.25 1030.69 1030.97 1031.09 1031.09 1031.02 1030.91 1030.80 1030.71 1030.64 1030.58 1030.52 1030.43 1030.30 1030.11 1029.85 1029.53 1029.15 1028.71 1028.23 1027.72 1027.17 1026.59 1025.98 1025.34 1024.67 1023.96 1023.21 1022.40 1021.54 1020.61 1019.61 1018.56 1017.46 1016.35
1023.08 1023.77 1024.60 1025.53 1026.51 1027.50 1028.43 1029.26 1029.94 1030.45 1030.80 1030.99 1031.06 1031.03 1030.94 1030.82 1030.68 1030.55 1030.41 1030.27 1030.12 1029.95 1029.74 1029.49 1029.19 1028.84 1028.44 1027.98 1027.46 1026.90 1026.28 1025.63 1024.96 1024.25 1023.53 1022.78 1021.99 1021.16 1020.27 1019.31 1018.29 1017.23 1016.14
1022.26 1023.05 1023.97 1024.99 1026.03 1027.07 1028.03 1028.89 1029.60 1030.16 1030.56 1030.82 1030.94 1030.96 1030.90 1030.77 1030.60 1030.41 1030.20 1029.99 1029.77 1029.55 1029.32 1029.07 1028.79 1028.47 1028.09 1027.65 1027.15 1026.57 1025.95 1025.28 1024.58 1023.87 1023.14 1022.40 1021.63 1020.83 1019.97 1019.05 1018.06 1017.03 1015.96
1021.48 1022.39 1023.43 1024.53 1025.63 1026.68 1027.65 1028.50 1029.21 1029.78 1030.21 1030.51 1030.69 1030.76 1030.73 1030.62 1030.44 1030.21 1029.95 1029.67 1029.39 1029.13 1028.87 1028.61 1028.34 1028.03 1027.68 1027.26 1026.78 1026.22 1025.60 1024.93 1024.23 1023.52 1022.81 1022.08 1021.34 1020.56 1019.72 1018.82 1017.85 1016.82 1015.77
1020.77 1021.82 1022.97 1024.14 1025.27 1026.33 1027.27 1028.07 1028.75 1029.31 1029.74 1030.07 1030.29 1030.41 1030.42 1030.34 1030.17 1029.93 1029.64 1029.32 1029.00 1028.69 1028.40 1028.13 1027.86 1027.57 1027.24 1026.85 1026.39 1025.86 1025.26 1024.61 1023.93 1023.24 1022.54 1021.82 1021.09 1020.32 1019.49 1018.59 1017.62 1016.59 1015.54
1020.15 1021.33 1022.58 1023.81 1024.96 1025.99 1026.88 1027.62 1028.24 1028.75 1029.16 1029.50 1029.75 1029.91 1029.98 1029.95 1029.81 1029.59 1029.29 1028.96 1028.61 1028.28 1027.96 1027.67 1027.39 1027.11 1026.80 1026.43 1026.00 1025.50 1024.94 1024.32 1023.67 1023.00 1022.31 1021.60 1020.87 1020.10 1019.26 1018.35 1017.37 1016.33 1015.27
1019.61 1020.91 1022.24 1023.51 1024.67 1025.66 1026.48 1027.15 1027.68 1028.13 1028.52 1028.85 1029.12 1029.33 1029.45 1029.47 1029.39 1029.20 1028.92 1028.60 1028.24 1027.89 1027.56 1027.26 1026.97 1026.69 1026.38 1026.04 1025.63 1025.17 1024.63 1024.05 1023.43 1022.77 1022.10 1021.39 1020.65 1019.86 1019.01 1018.08 1017.09 1016.05 1014.98
1019.16 1020.53 1021.91 1023.21 1024.35 1025.30 1026.06 1026.65 1027.12 1027.51 1027.86 1028.18 1028.47 1028.71 1028.88 1028.96 1028.93 1028.78 1028.55 1028.24 1027.89 1027.54 1027.20 1026.88 1026.59 1026.30 1026.00 1025.66 1025.27 1024.83 1024.32 1023.76 1023.16 1022.52 1021.86 1021.15 1020.40 1019.60 1018.73 1017.79 1016.79 1015.76 1014.71
1018.75 1020.16 1021.57 1022.87 1023.99 1024.91 1025.62 1026.16 1026.58 1026.93 1027.25 1027.56 1027.86 1028.12 1028.33 1028.45 1028.46 1028.36 1028.16 1027.88 1027.55 1027.20 1026.86 1026.53 1026.23 1025.92 1025.61 1025.27 1024.88 1024.45 1023.95 1023.41 1022.83 1022.20 1021.54 1020.84 1020.09 1019.28 1018.41 1017.48 1016.50 1015.49 1014.48
1018.33 1019.73 1021.14 1022.43 1023.54 1024.43 1025.13 1025.65 1026.06 1026.40 1026.71 1027.02 1027.33 1027.60 1027.83 1027.97 1028.01 1027.94 1027.76 1027.50 1027.19 1026.85 1026.50 1026.16 1025.84 1025.51 1025.18 1024.82 1024.42 1023.97 1023.48 1022.94 1022.37 1021.76 1021.11 1020.42 1019.68 1018.89 1018.04 1017.14 1016.20 1015.25 1014.30
1017.84 1019.21 1020.58 1021.85 1022.96 1023.87 1024.58 1025.14 1025.57 1025.94 1026.27 1026.59 1026.90 1027.17 1027.39 1027.53 1027.57 1027.50 1027.33 1027.08 1026.77 1026.43 1026.08 1025.73 1025.38 1025.03 1024.66 1024.26 1023.83 1023.37 1022.86 1022.32 1021.76 1021.16 1020.54 1019.87 1019.17 1018.42 1017.62 1016.77 1015.90 1015.02 1014.16
1017.23 1018.54 1019.86 1021.11 1022.23 1023.17 1023.95 1024.58 1025.08 1025.51 1025.90 1026.24 1026.55 1026.81 1027.01 1027.12 1027.13 1027.04 1026.86 1026.60 1026.29 1025.95 1025.59 1025.22 1024.84 1024.44 1024.03 1023.59 1023.12 1022.62 1022.09 1021.55 1020.99 1020.41 1019.82 1019.20 1018.55 1017.87 1017.14 1016.37 1015.58 1014.79 1014.02
1016.51 1017.72 1018.99 1020.22 1021.35 1022.36 1023.23 1023.96 1024.58 1025.11 1025.56 1025.94 1026.26 1026.51 1026.66 1026.72 1026.69 1026.56 1026.35 1026.07 1025.75 1025.39 1025.02 1024.62 1024.21 1023.77 1023.31 1022.81 1022.29 1021.75 1021.19 1020.64 1020.09 1019.54 1018.99 1018.43 1017.85 1017.24 1016.59 1015.91 1015.22 1014.52 1013.83
1015.68 1016.79 1017.99 1019.20 1020.36 1021.45 1022.42 1023.29 1024.03 1024.68 1025.21 1025.65 1025.98 1026.20 1026.32 1026.33 1026.23 1026.06 1025.81 1025.51 1025.17 1024.80 1024.41 1023.99 1023.54 1023.05 1022.53 1021.98 1021.40 1020.81 1020.23 1019.66 1019.11 1018.59 1018.09 1017.60 1017.09 1016.56 1016.00 1015.41 1014.80 1014.18 1013.57
1014.81 1015.82 1016.95 1018.13 1019.32 1020.48 1021.56 1022.56 1023.44 1024.20 1024.83 1025.32 1025.67 1025.88 1025.95 1025.91 1025.77 1025.54 1025.26 1024.94 1024.58 1024.20 1023.80 1023.36 1022.88 1022.35 1021.77 1021.16 1020.53 1019.89 1019.27 1018.68 1018.15 1017.66 1017.20 1016.77 1016.33 1015.88 1015.39 1014.87 1014.32 1013.76 1013.20
1013.97 1014.90 1015.95 1017.10 1018.30 1019.51 1020.69 1021.80 1022.80 1023.67 1024.38 1024.91 1025.28 1025.48 1025.54 1025.45 1025.27 1025.02 1024.72 1024.39 1024.03 1023.66 1023.25 1022.80 1022.29 1021.72 1021.10 1020.43 1019.74 1019.05 1018.40 1017.80 1017.27 1016.80 1016.39 1016.00 1015.62 1015.22 1014.79 1014.31 1013.81 1013.28 1012.75
1013.27 1014.10 1015.08 1016.19 1017.39 1018.63 1019.86 1021.05 1022.13 1023.07 1023.84 1024.42 1024.80 1025.00 1025.04 1024.94 1024.75 1024.49 1024.20 1023.88 1023.54 1023.18 1022.79 1022.33 1021.81 1021.21 1020.55 1019.84 1019.11 1018.38 1017.70 1017.09 1016.55 1016.10 1015.71 1015.35 1015.01 1014.64 1014.24 1013.79 1013.29 1012.77 1012.24
1012.73 1013.49 1014.40 1015.46 1016.62 1017.85 1019.11 1020.32 1021.44 1022.41 1023.21 1023.81 1024.21 1024.41 1024.46 1024.37 1024.19 1023.95 1023.69 1023.41 1023.11 1022.79 1022.41 1021.97 1021.45 1020.85 1020.16 1019.42 1018.66 1017.90 1017.20 1016.57 1016.04 1015.59 1015.21 1014.87 1014.54 1014.19 1013.79 1013.33 1012.82 1012.28 1011.72
1012.36 1013.06 1013.91 1014.90 1016.02 1017.21 1018.43 1019.63 1020.73 1021.71 1022.50 1023.10 1023.50 1023.71 1023.77 1023.71 1023.57 1023.38 1023.17 1022.95 1022.71 1022.44 1022.11 1021.70 1021.19 1020.59 1019.90 1019.15 1018.37 1017.61 1016.90 1016.27 1015.73 1015.28 1014.90 1014.56 1014.23 1013.87 1013.45 1012.98 1012.44 1011.86 1011.27
1012.12 1012.77 1013.56 1014.49 1015.53 1016.66 1017.81 1018.95 1020.01 1020.94 1021.70 1022.28 1022.68 1022.91 1022.99 1022.98 1022.89 1022.77 1022.64 1022.49 1022.31 1022.10 1021.82 1021.45 1020.98 1020.40 1019.73 1018.99 1018.23 1017.47 1016.77 1016.14 1015.60 1015.15 1014.77 1014.42 1014.07 1013.69 1013.25 1012.74 1012.17 1011.55 1010.91
1011.90 1012.52 1013.27 1014.13 1015.10 1016.14 1017.21 1018.26 1019.23 1020.10 1020.81 1021.36 1021.76 1022.00 1022.13 1022.17 1022.16 1022.12 1022.06 1021.99 1021.89 1021.74 1021.52 1021.20 1020.77 1020.23 1019.59 1018.89 1018.16 1017.43 1016.75 1016.14 1015.61 1015.16 1014.77 1014.41 1014.04 1013.64 1013.17 1012.63 1012.02 1011.37 1010.69
1011.60 1012.22 1012.93 1013.74 1014.63 1015.58 1016.55 1017.50 1018.38 1019.17 1019.84 1020.37 1020.76 1021.03 1021.21 1021.32 1021.38 1021.43 1021.45 1021.46 1021.43 1021.34 1021.18 1020.91 1020.52 1020.03 1019.45 1018.80 1018.12 1017.44 1016.80 1016.22 1015.71 1015.27 1014.88 1014.50 1014.11 1013.68 1013.19 1012.62 1011.99 1011.31 1010.60
1011.14 1011.76 1012.45 1013.21 1014.03 1014.90 1015.77 1016.63 1017.44 1018.16 1018.79 1019.30 1019.71 1020.03 1020.27 1020.45 1020.60 1020.73 1020.83 1020.90 1020.93 1020.90 1020.78 1020.56 1020.23 1019.79 1019.27 1018.69 1018.07 1017.46 1016.87 1016.34 1015.86 1015.43 1015.03 1014.65 1014.24 1013.79 1013.28 1012.70 1012.05 1011.36 1010.63
1010.47 1011.09 1011.76 1012.48 1013.25 1014.05 1014.85 1015.64 1016.39 1017.07 1017.68 1018.21 1018.65 1019.03 1019.35 1019.62 1019.85 1020.05 1020.23 1020.35 1020.43 1020.43 1020.35 1020.17 1019.88 1019.51 1019.05 1018.54 1018.01 1017.47 1016.95 1016.46 1016.02 1015.61 1015.21 1014.81 1014.39 1013.93 1013.41 1012.83 1012.19 1011.50 1010.77
1009.59 1010.20 1010.86 1011.55 1012.28 1013.03 1013.78 1014.52 1015.24 1015.91 1016.54 1017.11 1017.62 1018.07 1018.48 1018.84 1019.16 1019.44 1019.67 1019.84 1019.95 1019.98 1019.92 1019.77 1019.53 1019.21 1018.82 1018.39 1017.93 1017.47 1017.02 1016.58 1016.17 1015.78 1015.38 1014.98 1014.54 1014.07 1013.55 1012.98 1012.35 1011.69 1010.99
Thickness
5617 5607 5595 5582 5568 5556 5543 5533 5522 5512 5502 5490 5479 5467 5456 5444 5431 5417 5401 5383 5364 5344 5325 5308 5292 5277 5264 5251 5239 5227 5217 5207 5193 5184 5180 5177 5170 5168 5173 5186 5203 5223 5245
5620 5610 5596 5581 5568 5554 5541 5529 5517 5506 5494 5483 5470 5458 5446 5434 5421 5406 5388 5369 5350 5330 5312 5295 5280 5265 5252 5239 5226 5213 5202 5193 5179 5164 5158 5156 5158 5154 5155 5163 5180 5200 5219
5624 5613 5598 5582 5567 5553 5539 5527 5512 5499 5487 5475 5462 5449 5437 5424 5409 5393 5375 5356 5337 5318 5300 5284 5269 5255 5240 5228 5215 5202 5189 5180 5171 5156 5142 5135 5137 5142 5147 5151 5165 5183 5202
5629 5617 5601 5584 5568 5552 5537 5521 5507 5493 5480 5467 5454 5440 5426 5412 5398 5382 5364 5346 5326 5307 5290 5274 5260 5246 5232 5219 5206 5194 5180 5169 5162 5154 5144 5134 5128 5128 5138 5148 5158 5171 5191
5631 5619 5604 5586 5568 5550 5532 5516 5501 5487 5473 5460 5446 5431 5417 5403 5388 5372 5354 5336 5317 5299 5282 5267 5252 5238 5225 5212 5200 5188 5176 5164 5154 5148 5142 5138 5134 5130 5128 5139 5153 5166 5182
5631 5618 5602 5583 5564 5545 5528 5511 5495 5481 5467 5453 5439 5424 5409 5394 5378 5362 5344 5327 5309 5292 5276 5261 5246 5232 5219 5207 5195 5183 5172 5162 5153 5145 5140 5136 5134 5134 5133 5137 5146 5159 5176
5630 5615 5597 5579 5560 5541 5523 5507 5491 5476 5462 5447 5432 5418 5403 5387 5370 5353 5336 5319 5302 5286 5271 5256 5242 5228 5216 5203 5191 5180 5169 5159 5151 5144 5141 5138 5136 5136 5136 5139 5146 5156 5172
5627 5612 5595 5576 5557 5538 5521 5504 5488 5473 5458 5442 5427 5412 5397 5380 5364 5347 5329 5312 5296 5281 5267 5252 5238 5225 5212 5200 5188 5177 5166 5158 5149 5144 5140 5139 5138 5138 5139 5141 5146 5156 5171
5624 5609 5592 5574 5556 5537 5520 5502 5486 5470 5454 5438 5422 5406 5391 5375 5358 5342 5324 5308 5292 5277 5263 5249 5236 5223 5210 5198 5186 5175 5165 5156 5149 5143 5140 5138 5138 5139 5141 5144 5148 5154 5167
5623 5607 5590 5573 5555 5537 5518 5501 5484 5467 5451 5435 5418 5403 5386 5370 5355 5338 5321 5305 5289 5275 5261 5247 5234 5222 5209 5197 5185 5174 5164 5155 5148 5142 5139 5137 5138 5139 5142 5146 5151 5157 5164
5623 5606 5589 5571 5553 5535 5516 5498 5481 5465 5448 5432 5415 5399 5383 5367 5352 5335 5319 5303 5288 5273 5259 5246 5233 5221 5209 5197 5185 5175 5165 5156 5149 5142 5139 5137 5137 5139 5143 5147 5152 5159 5166
5622 5604 5586 5568 5550 5531 5514 5496 5480 5463 5447 5430 5413 5396 5380 5364 5349 5333 5318 5302 5286 5272 5258 5246 5233 5221 5209 5198 5187 5177 5168 5158 5150 5144 5140 5138 5139 5139 5143 5147 5153 5160 5167
5618 5600 5583 5566 5548 5530 5513 5496 5479 5463 5446 5429 5411 5394 5378 5362 5347 5332 5316 5300 5285 5272 5258 5246 5234 5222 5211 5200 5189 5180 5172 5163 5155 5148 5143 5140 5140 5141 5145 5149 5156 5162 5170
5615 5598 5582 5565 5548 5531 5514 5497 5480 5463 5445 5427 5409 5392 5376 5361 5346 5330 5314 5300 5285 5272 5259 5247 5235 5224 5213 5203 5194 5186 5178 5169 5161 5154 5148 5144 5143 5145 5148 5154 5159 5164 5170
5612 5597 5582 5566 5548 5531 5515 5498 5481 5463 5445 5426 5408 5391 5375 5360 5344 5328 5314 5299 5286 5273 5261 5249 5237 5226 5216 5207 5200 5193 5185 5176 5168 5161 5154 5150 5150 5152 5154 5158 5162 5166 5170
5615 5599 5583 5567 5551 5534 5517 5498 5480 5462 5444 5425 5407 5390 5373 5358 5342 5328 5314 5300 5287 5275 5263 5251 5240 5229 5220 5213 5208 5202 5192 5183 5175 5168 5162 5157 5155 5155 5158 5161 5165 5169 5171
5618 5602 5586 5571 5555 5537 5518 5498 5479 5461 5442 5423 5406 5389 5372 5357 5342 5328 5315 5301 5289 5278 5266 5254 5243 5233 5225 5219 5215 5208 5199 5190 5182 5175 5168 5164 5161 5160 5160 5162 5165 5167 5173
5619 5604 5588 5571 5555 5537 5517 5497 5477 5458 5440 5422 5405 5389 5372 5357 5343 5328 5315 5303 5291 5280 5269 5258 5248 5238 5230 5225 5220 5214 5204 5196 5189 5182 5175 5170 5166 5166 5168 5168 5168 5169 5173
5620 5606 5589 5571 5553 5533 5515 5494 5474 5456 5438 5422 5406 5390 5374 5358 5344 5330 5318 5306 5294 5283 5272 5262 5252 5243 5235 5229 5224 5219 5209 5201 5194 5187 5182 5177 5173 5174 5175 5173 5172 5174 5178
5616 5601 5585 5568 5549 5530 5511 5491 5472 5455 5440 5425 5409 5393 5377 5362 5347 5334 5322 5309 5297 5286 5275 5265 5255 5246 5238 5232 5227 5221 5213 5205 5198 5192 5186 5182 5181 5181 5181 5178 5177 5179 5184
5606 5594 5579 5564 5547 5527 5508 5489 5473 5459 5446 5429 5413 5397 5381 5366 5352 5338 5325 5312 5299 5288 5276 5266 5257 5248 5241 5234 5228 5223 5216 5209 5202 5196 5191 5187 5187 5186 5185 5184 5182 5185 5188
5596 5584 5570 5557 5541 5524 5506 5491 5478 5466 5448 5432 5416 5400 5385 5370 5356 5341 5327 5314 5301 5289 5277 5267 5257 5250 5242 5235 5230 5225 5220 5214 5205 5199 5195 5192 5193 5191 5189 5187 5189 5190 5191
5586 5576 5562 5548 5534 5521 5508 5495 5483 5467 5450 5433 5417 5402 5387 5373 5359 5344 5330 5317 5303 5290 5279 5268 5259 5251 5244 5237 5232 5227 5222 5216 5209 5203 5200 5198 5195 5193 5191 5191 5192 5192 5193
5578 5567 5554 5542 5531 5519 5507 5498 5485 5469 5452 5435 5419 5404 5389 5375 5362 5348 5334 5320 5306 5292 5281 5270 5261 5252 5245 5239 5235 5230 5223 5219 5213 5207 5202 5199 5196 5195 5194 5194 5194 5194 5196
5572 5561 5552 5543 5531 5517 5505 5496 5484 5469 5453 5437 5421 5407 5392 5378 5364 5351 5337 5324 5311 5297 5284 5273 5263 5255 5248 5243 5240 5234 5228 5223 5218 5212 5205 5201 5199 5197 5197 5197 5197 5198 5200
5566 5556 5548 5540 5529 5516 5505 5495 5484 5470 5454 5438 5423 5409 5394 5380 5366 5352 5338 5328 5316 5303 5291 5280 5269 5260 5253 5248 5242 5236 5231 5226 5222 5214 5207 5203 5200 5199 5198 5199 5200 5201 5203